This demonstration page uses our WeatherBlox Daily Observations layout. Learn more.

Left ArrowRight Arrow

39.08367, -84.50855

Hourly Observations for April 20, 2017

Temp ( °F °C ) Dew Point ( °F °C ) Humidity (%) Winds ( mph kmh ) Pressure ( in mb ) Visibility ( mi km ) Precip ( " mm )
12:53 am 00:53 Clear with Mist and Fog 61 16.1 61 16.1 100 100 Calm 30.08 1019 6 9.65604 0 0
1:26 am 01:26 Clear with Mist and Fog 61 16 61 16 100 100 Calm 30.06 1018 2 3.21868 0 0
1:37 am 01:37 Clear 60 15.6 60 15.6 100 100 Calm 30.06 1018 7 11.26538 0 0
1:53 am 01:53 Clear with Mist and Fog 60 15.6 60 15.6 100 100 Calm 30.07 1018 1 1.60934 0 0
2:18 am 02:18 Mostly Clear with Fog 61 16 61 16 100 100 Calm 30.03 1017 0.5 0.80467 0 0
2:25 am 02:25 Mostly Clear with Mist and Fog 59 15 59 15 100 100 Calm 30.03 1017 2 3.21868 0 0
2:33 am 02:33 Mostly Clear with Mist and Fog 58 14.4 58 14.4 100 100 Calm 30.06 1018 3 4.82802 0 0
2:53 am 02:53 Clear 59 15 59 15 100 100 Calm 30.06 1018 7 11.26538 0 0
3:22 am 03:22 Clear with Mist and Fog 58 14.4 58 14.4 100 100 Calm 30.06 1018 1.75 2.816345 0 0
3:36 am 03:36 Clear with Fog 57 14 57 14 100 100 Calm 30.06 1018 0.5 0.80467 0 0
3:53 am 03:53 Clear with Mist and Fog 59 15 59 15 100 100 Calm 30.06 1018 1.25 2.011675 0 0
4:15 am 04:15 Clear with Mist and Fog 56 13.3 56 13.3 100 100 Calm 30.06 1018 1.75 2.816345 0 0
4:32 am 04:32 Clear with Fog 58 14.4 58 14.4 100 100 Calm 30.06 1018 0.5 0.80467 0 0
4:35 am 04:35 Mostly Cloudy with Fog 57 13.9 57 13.9 100 100 Calm 30.06 1018 0.25 0.402335 0 0
4:44 am 04:44 Mostly Cloudy with Mist and Fog 57 14 57 14 100 100 Calm 30.06 1018 1 1.60934 0 0
4:51 am 04:51 Clear with Mist and Fog 57 14 57 14 100 100 Calm 30.06 1018 1.5 2.41401 0 0
4:53 am 04:53 Clear with Mist and Fog 57 13.9 57 13.9 100 100 Calm 30.06 1018 1.25 2.011675 0 0
5:00 am 05:00 Mostly Clear with Mist and Fog 56 13.3 56 13.3 100 100 Calm 30.06 1018 1.75 2.816345 0 0
5:04 am 05:04 Mostly Clear with Mist and Fog 57 14 57 14 100 100 Calm 30.06 1018 3 4.82802 0 0
5:12 am 05:12 Mostly Clear with Mist and Fog 57 14 57 14 100 100 Calm 30.06 1018 1.5 2.41401 0 0
5:16 am 05:16 Mostly Cloudy with Mist and Fog 58 14.4 58 14.4 100 100 Calm 30.06 1018 0.75 1.207005 0 0
5:30 am 05:30 Clear with Mist and Fog 58 14.4 58 14.4 100 100 Calm 30.06 1018 0.75 1.207005 0 0
5:34 am 05:34 Clear with Mist and Fog 59 15 59 15 100 100 Calm 30.03 1017 2 3.21868 0 0
5:53 am 05:53 Clear with Mist and Fog 58 14.4 58 14.4 100 100 Calm 30.06 1018 1.25 2.011675 0 0
6:03 am 06:03 Clear with Fog 57 14 57 14 100 100 Calm 30.06 1018 0.5 0.80467 0 0
6:10 am 06:10 Mostly Cloudy with Fog 57 14 57 14 100 100 Calm 30.06 1018 0.25 0.402335 0 0
6:21 am 06:21 Mostly Cloudy with Mist and Fog 57 13.9 57 13.9 100 100 Calm 30.06 1018 1 1.60934 0 0
6:23 am 06:23 Mostly Clear with Mist and Fog 57 13.9 57 13.9 100 100 Calm 30.06 1018 2 3.21868 0 0
6:37 am 06:37 Clear with Mist and Fog 57 13.9 57 13.9 100 100 Calm 30.06 1018 3 4.82802 0 0
6:53 am 06:53 Mostly Sunny 58 14.4 58 14.4 100 100 Calm 30.06 1018 10 16.0934 0 0
7:53 am 07:53 Partly Cloudy 60 15.6 60 15.6 100 100 Calm 30.06 1018 10 16.0934 0 0
8:53 am 08:53 Mostly Cloudy 67 19.4 64 17.8 91 91 SSW 8 13 30.06 1018 10 16.0934 0 0
9:53 am 09:53 Partly Cloudy 71 21.7 63 17.2 76 76 SW 12 19 30.05 1018 10 16.0934 0 0
10:53 am 10:53 Sunny 76 24.4 65 18.3 69 69 SSW 12 19 30.03 1017 10 16.0934 0 0
11:53 am 11:53 Mostly Sunny 77 25 62 16.7 60 60 WSW 20 31 30.02 1017 10 16.0934 0 0
12:53 pm 12:53 Partly Cloudy 79 26.1 63 17.2 58 58 SW 22 35 29.99 1016 10 16.0934 0 0
1:53 pm 13:53 Partly Cloudy 80 26.7 63 17.2 56 56 SW 16 26 29.96 1015 10 16.0934 0 0
2:53 pm 14:53 Partly Cloudy 81 27.2 62 16.7 53 53 SSW 20 31 29.92 1013 10 16.0934 0 0
3:53 pm 15:53 Partly Cloudy 81 27.2 63 17.2 54 54 SSW 16 26 29.9 1012 10 16.0934 0 0
4:53 pm 16:53 Mostly Sunny 82 27.8 63 17.2 53 53 SW 12 19 29.88 1012 10 16.0934 0 0
5:32 pm 17:32 Cloudy with Light Rain 72 22 64 18 78 78 W 13 20 29.91 1013 6 9.65604 0 0
5:53 pm 17:53 Partly Cloudy 73 22.8 67 19.4 81 81 WSW 9 15 29.9 1012 10 16.0934 0.03 0.762
6:53 pm 18:53 Mostly Sunny 72 22.2 65 18.3 79 79 SSW 9 15 29.89 1012 10 16.0934 0 0.0254
7:53 pm 19:53 Partly Cloudy 72 22.2 63 17.2 73 73 SSW 13 20 29.89 1012 10 16.0934 0 0
8:51 pm 20:51 Mostly Cloudy with Nearby Thunderstorms 72 22 64 18 78 78 SSW 8 13 29.91 1013 10 16.0934 0 0.0254
8:53 pm 20:53 Mostly Cloudy with Nearby Thunderstorms 71 21.7 65 18.3 81 81 SSW 9 15 29.9 1013 10 16.0934 0 0.0254
9:06 pm 21:06 Mostly Cloudy with Light Rain 71 21.7 65 18.3 81 81 SW 8 13 29.91 1013 10 16.0934 0 0.0254
9:53 pm 21:53 Cloudy with Light Rain 70 21.1 66 18.9 87 87 WSW 10 17 29.9 1012 10 16.0934 0.02 0.508
10:53 pm 22:53 Mostly Cloudy 68 20 65 18.3 90 90 SW 7 11 29.88 1012 10 16.0934 0.02 0.508
11:53 pm 23:53 Clear 69 20.6 65 18.3 87 87 SW 9 15 29.88 1012 10 16.0934 0 0

Powered by AerisWeather